Terminal Aerodrome Forecast
Issued by NWS Los Angeles, CA

Home | Current Version | Previous Version | Text Only | Print | Product List | Glossary On
Versions: 1 2 3 4 5 6 7 8 9 10 11 12 13 14 15 16 17 18 19
000
FTUS46 KLOX 230500
TAFSMX
TAF
KSMX 230538Z 2306/2406 VRB03KT P6SM OVC008
     FM230900 VRB03KT 4SM BR OVC005
     FM231500 VRB03KT P6SM OVC008
     FM231800 VRB03KT P6SM SCT013
     FM232000 30010KT P6SM SKC
     FM240500 VRB05KT P6SM BKN008=

USA.gov is the U.S. government's official web portal to all federal, state and local government web resources and services.